Location: Newark
(55.4390°N, 25.0170°E)
Time: 18:02:05
(UTC+00:00)

Envisat - Pass Details

Date: 07 March 2021
Orbit: 764 x 766 km, 98.1° (Epoch: 17 April)

Event Time Altitude Azimuth Distance (km) Brightness Sun altitude
Rises 02:27:43 0° 27° (NNE) 3,248 7.0 -21.4°
Reaches altitude 10° 02:31:18 10° 53° (NE) 2,314 6.6 -20.9°
Maximum altitude 02:33:50 14° 83° (E) 2,062 6.2 -20.6°
Drops below altitude 10° 02:36:22 10° 113° (ESE) 2,305 6.1 -20.2°
Sets 02:39:54 0° 139° (SE) 3,225 6.5 -19.8°
